AKST,Max TemperatureF,Mean TemperatureF,Min TemperatureF,Max Dew PointF,MeanDew PointF,Min DewpointF,Max Humidity, Mean Humidity, Min Humidity, Max Sea Level PressureIn, Mean Sea Level PressureIn, Min Sea Level PressureIn, Max VisibilityMiles, Mean VisibilityMiles, Min VisibilityMiles, Max Wind SpeedMPH, Mean Wind SpeedMPH, Max Gust SpeedMPH,PrecipitationIn, CloudCover, Events, WindDirDegrees
2014-2-1,26,20,6,25,18,1,100,91,79,30.66,30.43,30.23,,,,16,7,,0.00,4,,186
2014-2-2,10,7,4,6,4,-1,85,81,78,30.79,30.75,30.70,,,,12,9,,0.00,0,,161
2014-2-3,14,7,0,11,3,-6,92,85,75,30.79,30.67,30.49,,,,20,9,,0.00,1,,67
2014-2-4,25,12,-2,23,11,-8,93,86,78,30.50,30.45,30.43,,,,21,9,,0.00,6,Snow,146
2014-2-5,25,22,18,23,17,14,93,87,80,30.51,30.48,30.43,,,,33,24,40,0.00,7,Snow,218
2014-2-6,22,9,-4,20,0,-9,92,82,76,31.06,30.81,30.51,,,,32,23,38,0.00,6,,306
2014-2-7,-2,-6,-11,-8,-12,-17,92,81,77,31.10,31.05,30.94,,,,13,7,,0.00,5,,43
2014-2-8,6,-2,-9,0,-6,-15,83,80,76,30.96,30.82,30.74,,,,14,9,,0.00,6,,73
2014-2-9,0,-4,-9,-4,-8,-15,92,81,75,30.83,30.78,30.67,,,,12,6,,0.00,3,Snow,70
2014-2-10,14,2,-10,11,-1,-16,92,85,77,30.64,30.35,30.26,,,,26,11,30,0.00,6,Snow,266
2014-2-11,1,-8,-18,-3,-19,-26,84,76,70,30.40,30.24,30.13,6,3,2,22,18,,0.00,4,,306
2014-2-12,-18,-28,-38,-26,-29,-33,76,69,63,30.14,30.07,30.04,10,5,2,16,12,,0.00,4,Snow,355
2014-2-13,-36,-38,-40,,,,,,,30.08,30.05,30.03,10,10,10,14,9,,0.00,1,,46
2014-2-14,-29,-34,-38,,,,,,,30.09,30.07,30.05,,,,16,13,,0.00,3,,43
2014-2-15,-22,-26,-31,-29,-34,-36,76,71,68,30.09,30.01,29.86,,,,17,14,,0.00,4,,35
2014-2-16,-22,-26,-29,-29,-33,-36,76,71,69,29.97,29.89,29.85,,,,16,14,,0.00,4,,41
2014-2-17,-22,-26,-32,-28,-30,-35,77,74,69,30.19,30.06,29.96,,,,17,15,,0.00,2,,59
2014-2-18,-15,-24,-34,-20,-25,-35,84,75,69,30.22,30.12,30.03,,,,10,6,,0.00,6,Snow,131
2014-2-19,-6,-18,-31,-12,-24,-36,84,76,69,30.25,30.14,30.04,,,,10,5,,0.00,4,Snow,47
2014-2-20,-22,-28,-33,-28,-32,-36,76,72,69,30.34,30.30,30.27,,,,8,5,,0.00,1,,53
2014-2-21,-19,-24,-29,-26,-31,-36,76,73,69,30.45,30.41,30.35,,,,10,2,,0.00,0,,98
2014-2-22,-2,-14,-25,-8,-21,-31,79,75,70,30.42,30.24,30.10,,,,23,13,,0.00,2,Snow,40
2014-2-23,7,4,1,2,-1,-3,85,81,78,30.11,29.99,29.90,,,,25,15,,0.00,5,Snow,50
2014-2-24,8,3,-2,3,-3,-9,87,77,67,30.01,29.97,29.94,,,,10,5,,0.00,0,,85
2014-2-25,18,6,-7,16,4,-13,93,84,72,30.25,30.08,29.94,,,,16,6,,0.00,5,Snow,190
2014-2-26,16,11,4,14,10,0,92,89,84,30.28,30.20,30.00,,,,24,9,,0.00,8,Snow,64
2014-2-27,5,3,1,1,-1,-3,88,85,83,29.98,29.87,29.81,,,,32,24,41,0.00,6,Snow,60
2014-2-28,30,18,5,22,7,0,85,80,69,29.87,29.83,29.79,,,,17,11,,0.00,3,Snow,77